Regional Weather Roundup
Issued by NWS

Home | Current Version | Previous Version | Text Only | Print | Product List | Glossary On
Versions: 1 2 3 4 5 6 7 8 9 10 11 12 13 14 15 16 17 18 19 20 21 22 23 24 25 26 27
000
ASUS42 KTBW 242010
RWRFL
FLORIDA REGIONAL WEATHER ROUNDUP
NATIONAL WEATHER SERVICE TAMPA BAY RUSKIN FL
400 PM EDT FRI OCT 24 2014

NOTE: "FAIR" INDICATES FEW OR NO CLOUDS BELOW 12,000 FEET WITH NO
SIGNIFICANT WEATHER AND/OR OBSTRUCTIONS TO VISIBILITY.


FLZ001>010-012>015-112-114-115-242100-
PANHANDLE FLORIDA

CITY           SKY/WX    TMP DP  RH WIND       PRES   REMARKS
PENSACOLA      SUNNY     77  43  29 VRB5      29.99F
PENSACOLA NAS  SUNNY     76  49  38 MISG      29.99F
MILTON NAS     MOSUNNY   76  42  29 VRB7      30.00F
CRESTVIEW      SUNNY     77  45  32 CALM      30.00F
DUKE FIELD     MOSUNNY   76  42  29 N6        29.99F
VALPARAISO     MOSUNNY   73  48  40 VRB6      29.99F
PANAMA CITY    FAIR      77  46  33 NW8       29.97F
TYNDALL AFB    SUNNY     74  52  44 W9        29.98F
APALACHICOLA   SUNNY     76  47  35 S8        29.97F

STATION/POSITION SKY/WX   TEMP    WIND        PRES    WAVE   SWELL
                          AIR SEA DIR/SP/G            HT/PER HT/PER
                          (F)     (DEG/KT/KT) (MB)    (FT/S) (FT/S)
30.1N   87.6W              71 78  270/  6/  8 1015.7F   2/ 7   2/ 7
29.2N   88.2W              71 80  360/ 10/ 12 1016.5F   2/ 7   2/ 7
28.8N   86.0W              72 80   20/  8/ 10 1015.4F   2/ 5   2/ 5
PANAMA CITY BEAC           71 77  250/  8/  9 1015.2R
CAPE SAN BLAS    NOT AVBL
TOWER C                    71      10/  1/  2 1015.0F
28.5N   84.5W              71 81   40/ 10/ 12 1014.7F   2/ 4   2/ 4

$$
FLZ011-016>038-118-127-128-134-139-239-242100-
NORTH FLORIDA

CITY           SKY/WX    TMP DP  RH WIND       PRES   REMARKS
MARIANNA       SUNNY     76  43  30 N8        29.98S
TALLAHASSEE    MOSUNNY   78  44  29 VRB3      29.96F
PERRY          SUNNY     75  37  25 N5        29.97F
CROSS CITY       N/A     78  49  35 CALM      29.96F
LAKE CITY      FAIR      73  46  38 CALM      29.97S
GAINESVILLE    SUNNY     76  50  40 VRB3      29.95F
MAYPORT NAS    MOSUNNY   74  56  53 NE12      29.98F
JACKSONVILLE   MOSUNNY   74  51  44 E7        29.97F
JAX NAS        MOSUNNY   77  51  40 NE7       29.98F
JAX CRAIG      SUNNY     74  53  48 NE6       29.98F
JAX CECIL      SUNNY     73  48  40 VRB6      29.97F
FERNANDINA BEA FAIR      77  55  47 E10       29.98S
ST AUGUSTINE   SUNNY     73  60  63 N10       29.98F

STATION/POSITION SKY/WX   TEMP    WIND        PRES    WAVE   SWELL
                          AIR SEA DIR/SP/G            HT/PER HT/PER
                          (F)     (DEG/KT/KT) (MB)    (FT/S) (FT/S)
SHELL POINT                71     150/  7/  8   N/A
KEATON BEACH               71     270/  6/  7 1014.7F
CEDAR KEY                  73     310/  4/  7 1014.5F
FERNANDINA                 70 73   20/  7/ 10 1014.9S
30.7N   81.3W                 76                N/A     2/12   2/12
MAYPORT                    70 76   50/ 10/ 15   N/A
31.4N   80.9W              69 75   30/  6/  8 1015.7F   2/11   2/11
ST AUGUSTINE               71      10/ 10/ 11 1015.3F

$$
FLZ040-043>046-052-053-057-058-063-144-242100-
INTERIOR CENTRAL FLORIDA

CITY           SKY/WX    TMP DP  RH WIND       PRES   REMARKS
OCALA          SUNNY     79  52  38 NE6       29.94F
THE VILLAGES     N/A     77  55  47 N6G14     29.84F
LEESBURG       MOSUNNY   81  54  39 NE9       29.93F
SANFORD        MOSUNNY   76  56  49 NE9       29.94F
ORLANDO EXEC   PTSUNNY   77  57  50 NE13      29.93F
ORLANDO INTL   MOSUNNY   80  57  45 NE16      29.92F
KISSIMMEE      PTSUNNY   79  57  47 NE9       29.92F
WINTER HAVEN   PTSUNNY   79  58  48 NE12      29.92F
LAKELAND       PTSUNNY   79  59  50 NE9G17    29.91F
BARTOW         PTSUNNY   81  57  44 NE12G20   29.91F
OKEECHOBEE     MOSUNNY   79  61  53 MISG      29.87F

$$
FLZ041-047-054-059-064-141-147-242100-
EAST CENTRAL FLORIDA

CITY           SKY/WX    TMP DP  RH WIND       PRES   REMARKS
ORMOND BEACH   MOSUNNY   73  57  56 NE12      29.96F
DAYTONA BEACH  MOSUNNY   77  57  50 N10G21    29.95F
DELAND         PTCLDY    77  55  47 NE10G17   29.96S
NEW SMYRNA BEA MOSUNNY   79  57  47 NE14      29.96F
JFK SPACE CTR  PTSUNNY   76  58  52 NE10      29.93F
CAPE CANAVERAL MOSUNNY   78  58  51 NE8       29.92F
PATRICK AFB    PTSUNNY   77  59  54 NE13      29.92F
MELBOURNE      MOSUNNY   79  57  46 NE17      29.91F
VERO BEACH     PTSUNNY   77  58  51 NE12      29.89S
FT PIERCE      PTSUNNY   79  61  53 NE9G17    29.88F
STUART         PTSUNNY   77  64  65 NE16      29.87F

STATION/POSITION SKY/WX   TEMP    WIND        PRES    WAVE   SWELL
                          AIR SEA DIR/SP/G            HT/PER HT/PER
                          (F)     (DEG/KT/KT) (MB)    (FT/S) (FT/S)
28.5N   80.2W              75 80   50/ 10/ 16 1013.6F
28.9N   78.5W              74 82   40/  8/ 12 1013.3F   3/11   2/11
TRIDENT PIER               76 80   10/ 10/ 13 1012.9F
28.4N   80.5W                 79                N/A     2/11
27.6N   80.2W                 80                N/A     4/ 6

$$
FLZ050-056-061-142-242-148-248-149-249-151-251-155-255-
160-260-242100-
WEST CENTRAL FLORIDA

CITY           SKY/WX    TMP DP  RH WIND       PRES   REMARKS
CRYSTAL RIVER  FAIR      79  54  41 E3        29.93F
INVERNESS      FAIR      79  52  38 NE7       29.93F
BROOKSVILLE    MOSUNNY   78  58  49 NE8       29.93F
ZEPHYRHILLS    FAIR      77  55  47 NE6       29.92F
CLEARWATER     SUNNY     77  58  51 N7        29.91F
TAMPA INTL     PTSUNNY   79  56  45 NE8       29.91F
PLANT CITY     CLOUDY    81  57  44 NE8       29.93F
MACDILL AFB    MOSUNNY   82  60  47 N8        29.91F
ST PETERSBURG  SUNNY     79  59  50 NE8       29.89F
SARASOTA       MOSUNNY   81  58  45 N5        29.88F
VENICE           N/A     81  59  47 MISG      29.88F

STATION/POSITION SKY/WX   TEMP    WIND        PRES    WAVE   SWELL
                          AIR SEA DIR/SP/G            HT/PER HT/PER
                          (F)     (DEG/KT/KT) (MB)    (FT/S) (FT/S)
CEDAR KEY                  73     310/  4/  7 1014.5F
28.5N   84.5W              71 81   40/ 10/ 12 1014.7F   2/ 4   2/ 4
27.3N   84.3W                 81                N/A     3/ 5
CLEARWATER BEACH NOT AVBL
MIDDLE TAMPA BAY           76      10/ 10/ 12 1012.9F
VENICE                     80 79   30/  8/ 11 1011.3F

$$
FLZ066-069-070-075>078-162-262-165-265-242100-
SOUTHWEST FLORIDA AND KEYS

CITY           SKY/WX    TMP DP  RH WIND       PRES   REMARKS
PUNTA GORDA    MOSUNNY   85  62  46 N12       29.88F
FT MYERS       MOSUNNY   83  64  52 NE7       29.84F
SOUTHWEST INTL MOSUNNY   83  64  52 NE10      29.85F
NAPLES         MOSUNNY   85  64  49 NE13G20   29.82F
MARATHON       PTSUNNY   79  74  84 N14G26    29.77S
KEY WEST NAS   PTSUNNY   81  72  74 N18G24    29.80F
KEY WEST INTL  PTSUNNY   82  74  76 NE17G25   29.81S

STATION/POSITION SKY/WX   TEMP    WIND        PRES    WAVE   SWELL
                          AIR SEA DIR/SP/G            HT/PER HT/PER
                          (F)     (DEG/KT/KT) (MB)    (FT/S) (FT/S)
VENICE                     80 79   30/  8/ 11 1011.3F
NAPLES                     82 82   30/ 10/ 16 1010.7S
26.0N   85.6W              77 81   30/ 12/ 16 1013.2F   6/ 7   5/ 7
DRY TORTUGAS               79      30/ 19/ 20 1010.3F
NW FL BAY                  79      40/ 23/ 28 1009.2F
SAND KEY                   79      30/ 22/ 26 1009.2F
SOMBRERO KEY               77      20/ 30/ 31 1007.8F
LONG KEY                   77 78   20/ 25/ 28 1008.7F
MOLASSES REEF              76 82   50/ 18/ 20 1007.8F

$$
FLZ067-068-071>074-168-172>174-242100-
SOUTHEAST FLORIDA

CITY           SKY/WX    TMP DP  RH WIND       PRES   REMARKS
W PALM BEACH   PTSUNNY   79  68  69 NE16      29.83F
FT LAUDER-EXEC CLOUDY    78  66  66 NE15G23   29.81F
FT LAUDERDALE  CLOUDY    79  69  71 NE17      29.81F
POMPANO BEACH  CLOUDY    80  67  64 NE18G24   29.82F
PEMBROKE PINES CLOUDY    77  69  76 NE15      29.83F
OPA LOCKA      CLOUDY    78  70  76 NE14      29.82S
MIAMI          CLOUDY    78  70  76 NE12G21   29.81F
WEST KENDALL   CLOUDY    81  72  74 NE20G26   29.81F
HOMESTEAD      CLOUDY    75  73  94 NE17      29.80R

STATION/POSITION SKY/WX   TEMP    WIND        PRES    WAVE   SWELL
                          AIR SEA DIR/SP/G            HT/PER HT/PER
                          (F)     (DEG/KT/KT) (MB)    (FT/S) (FT/S)
PORT EVERGLADES            79      30/ 12/ 21 1009.5
VIRGINIA KEY               77 80   40/ 11/ 19 1009.5F
LAKE WORTH                 78 79   40/ 20/ 25 1009.9F
FOWEY ROCKS                78 80   30/ 28/ 29 1009.1F
SETTLEMENT POINT           77      50/ 18/ 19 1010.8F

$$




USA.gov is the U.S. government's official web portal to all federal, state and local government web resources and services.